Weather observations for the past three days for
Goodland, Renner Field
Imperial (Metric)
Date Time (mdt) Wind (mph) Vis. (mi.) Weather Sky Cond. Temperature (ºF) Relative Humidity Wind Chill (°F) Heat Index (°F) Pressure Precipitation (in)
Air Dwpt 6 hour altimeter (in) sea level (mb) 1 hr 3 hr 6 hr
Max. Min.
12 11:53 S 14 10.00 Fair CLR 93 55.9 93.9 63 29% 91 30.04 1011.4
12 10:53 S 15 10.00 Fair CLR 90 57.9 34% 89 30.03 1011.3
12 09:53 S 12 10.00 Fair CLR 84.9 57.9 40% 84 30.05 1012.8
12 08:53 S 10 10.00 Fair CLR 81 57.9 45% 81 30.05 1012.5
12 07:53 SE 9 0.00 Fair CLR 79 57 47% 80 30.05 1012.5
12 06:53 SE 7 10.00 Fair CLR 72 57 59% 30.03 1011.6
12 05:53 Calm 10.00 Fair CLR 64 53.1 82 63 68% 30.02 1011.7
12 04:53 SW 3 10.00 Fair CLR 64 52 65% 30.02 1011.3
12 03:53 S 12 10.00 Fair CLR 72 50 46% 30.02 1010.9
12 02:53 SE 10 10.00 Fair CLR 75 48.9 40% 77 30.01 1010.4
12 01:53 SW 6 10.00 Fair CLR 75 48 39% 77 30.01 1010.6
12 00:53 SW 24 G 38 10.00 Fair and Breezy CLR 81 46.9 30% 80 30.01 1010.4
11 23:53 W 21 G 29 10.00 Thunderstorm in Vicinity and Breezy CLR 81 55 88 71.1 41% 81 30.11 1014.1
11 22:53 S 12 10.00 Fair CLR 75 55 50% 78 30.07 1013.1
11 21:53 S 8 10.00 Fair CLR 71.1 55.9 59% 30.08 1013.6
11 20:53 SE 8 10.00 Fair CLR 78.1 53.1 42% 79 30.05 1012.5
11 19:53 SE 9 10.00 Fair CLR 82 54 38% 81 30.04 1012.5
11 18:53 SE 15 10.00 Fair CLR 88 53.1 30% 86 30.04 1012.3
11 17:53 SE 14 10.00 Fair CLR 91.9 52 95 89.1 26% 89 30.04 1012.7
11 16:53 SE 15 G 24 10.00 Fair CLR 93.9 52 24% 91 30.03 1012.3
11 15:53 SE 14 G 23 10.00 Fair CLR 93.9 53.1 25% 91 30.05 1012.8
11 14:53 SE 13 10.00 Fair CLR 93.9 53.1 25% 91 30.07 1013.4
11 13:53 SE 10 G 24 10.00 Fair CLR 93 54 27% 91 30.09 1014.0
11 12:53 SE 14 G 24 10.00 Fair CLR 91 53.1 27% 89 30.1 1014.4
11 11:53 SE 13 G 21 10.00 Fair CLR 89.1 53.1 89.1 57.9 29% 87 30.12 1015.2
11 10:53 SE 10 10.00 Fair CLR 87.1 53.1 31% 85 30.13 1015.5
11 09:53 E 10 10.00 Fair CLR 84 55.9 38% 83 30.12 1015.4
11 08:53 SE 8 10.00 Fair CLR 80.1 60.1 51% 81 30.13 1015.6
11 07:53 E 3 10.00 Fair CLR 72 62.1 71% 30.12 1015.2
11 06:53 E 5 9.00 Fair CLR 64.9 61 87% 30.11 1015.0
11 05:53 Calm 10.00 Fair CLR 57.9 55 64.9 57 90% 30.1 1014.9
11 04:53 Calm 10.00 Fair CLR 57.9 55.9 93% 30.11 1015.0
11 03:53 SW 3 10.00 Fair CLR 60.1 55.9 86% 30.12 1015.2
11 02:53 SE 3 10.00 Fair CLR 60.1 57 90% 30.11 1014.9
11 01:53 S 7 10.00 Fair CLR 62.1 57.9 86% 30.12 1015.3
11 00:53 SE 5 10.00 Fair CLR 64 57 78% 30.13 1015.6
10 23:53 E 7 10.00 Fair CLR 64.9 55.9 91 64 73% 30.13 1015.5
10 21:53 E 7 10.00 Fair CLR 70 55 59% 30.12 1015.3
10 20:53 E 7 10.00 Fair CLR 72 54 53% 30.1 1014.9
10 19:53 E 7 10.00 Fair CLR 80.1 51.1 37% 80 30.09 1014.3
10 18:53 NE 9 10.00 Fair CLR 88 46.9 24% 85 30.08 1013.7
10 17:53 NE 10 10.00 Fair CLR 91 44.1 93 88 20% 87 30.08 1013.9
10 16:53 N 8 10.00 Fair CLR 91 45 20% 87 30.08 1014.0
10 15:53 N 15 G 23 10.00 Fair CLR 91.9 45 20% 88 30.09 1014.1
10 14:53 N 17 G 25 10.00 Fair CLR 91.9 46 21% 88 30.1 1014.2
10 13:53 N 17 G 23 10.00 Fair CLR 91.9 45 20% 88 30.1 1014.7
10 12:53 N 15 G 21 10.00 Fair CLR 90 46.9 23% 87 30.11 1015.2
10 11:53 N 12 G 20 10.00 Fair CLR 90 48.9 90 61 24% 87 30.12 1015.3
10 10:53 NE 10 10.00 Fair CLR 88 53.1 30% 86 30.12 1015.3
10 09:53 Vrbl 5 10.00 Fair CLR 82 57 43% 82 30.12 1015.3
10 08:53 N 6 10.00 Fair CLR 75.9 57 52% 78 30.12 1015.7
10 07:53 W 6 10.00 Fair CLR 72 57 59% 30.11 1014.9
10 06:53 S 3 10.00 Fair CLR 66.9 55.9 68% 30.1 1014.3
10 05:53 S 8 10.00 Fair CLR 61 55 66 60.1 81% 30.09 1014.3
10 04:53 S 9 10.00 Fair CLR 60.1 55 84% 30.09 1014.3
10 03:53 S 9 10.00 Fair CLR 62.1 55.9 80% 30.09 1014.1
10 02:53 S 9 10.00 Fair CLR 64.9 55.9 73% 30.09 1014.2
10 01:53 S 6 10.00 Fair CLR 61 55.9 84% 30.1 1014.9
10 00:53 S 9 10.00 Fair CLR 60.1 55.9 86% 30.1 1015.2
09 23:53 S 10 10.00 Fair CLR 66 55.9 89.1 66 70% 30.1 1014.7
09 22:53 S 10 10.00 Fair CLR 66.9 55.9 68% 30.09 1014.5
09 21:53 S 8 10.00 Fair CLR 69.1 55 61% 30.08 1014.1
09 20:53 S 7 10.00 Fair CLR 70 55.9 61% 30.05 1013.5
09 19:53 SE 9 10.00 Fair CLR 79 55 44% 80 30.03 1012.6
09 18:53 SE 10 10.00 Fair CLR 86 52 31% 84 30.02 1012.2
09 17:53 SE 8 10.00 Fair CLR 89.1 46 91 84 23% 86 30.01 1011.9
09 16:53 E 8 10.00 Fair CLR 90 46 22% 87 30.02 1012.2
09 15:53 Calm 10.00 Fair CLR 89.1 46.9 23% 86 30.04 1012.7
09 14:53 Vrbl 5 10.00 Fair CLR 88 46.9 24% 85 30.05 1013.0
09 13:53 SE 8 G 17 10.00 Fair CLR 89.1 46.9 23% 86 30.06 1013.4
09 12:53 Calm 10.00 Fair CLR 86 48 27% 83 30.07 1013.9
Date Time (mdt) Wind (mph) Vis. (mi.) Weather Sky Cond. Air Dwpt Max. Min. Relative Humidity Wind Chill (°F) Heat Index (°F) altimeter (in) sea level (mb) 1 hr 3 hr 6 hr
6 hour
Temperature (ºF) Pressure Precipitation (in)